www.pogodaiklimat.ru

Погода и климат >> Архив погоды >> Россия >> Чукотка >> Мыс Шмидта


ПОГОДА на Мысе Шмидта

  • Прогноз погоды на Мысе Шмидта
  • Монитор погоды на Мысе Шмидта

АРХИВ ПОГОДЫ на Мысе Шмидта

Время (UTC), дата Ветер
(напр.,м/с)
 
Видим.   Явления Облачность Т
(С)
Тd
(С)
f
(%)
Тe
(С)
Тes
(С)
Комфортность P
(гПа)
Po
(гПа)
Тmin
(С)
Tmax
(С)
R
(мм)
R24
(мм)
S
(см)
09 11.06 Ю 2 н/о н/о +7.9 +5.5 85 +6 +6 1017.8 1017.4 +11.5
12 11.06 Ю 2 н/о н/о +4.5 +3.6 94 +2 +2 1016.8 1016.4
15 11.06 штиль 0 н/о н/о +4.0 +3.0 93 +3 +3 1016.0 1015.6
18 11.06 Ю 1 н/о н/о +5.8 +2.8 81 +5 +5 1015.6 1015.2
21 11.06 С 2 н/о н/о +7.0 +2.9 75 +5 +5 1015.8 1015.4 +2.8
00 12.06 С 2 н/о н/о +5.9 +3.1 82 +4 +4 1015.5 1015.2
03 12.06 В 3 н/о н/о +9.8 +5.5 75 +8 +8 1014.7 1014.3
06 12.06 ЮВ 2 н/о н/о +9.9 +5.5 74 +8 +8 1013.4 1013.0
09 12.06 Ю 2 н/о н/о +11.0 +7.5 79 +10 +10 1012.9 1012.5 +12.5
12 12.06 Ю 3 н/о н/о +6.2 +3.6 83 +3 +3 1012.6 1012.2
15 12.06 ЮЗ 1 н/о н/о +6.2 +3.6 83 +5 +5 1012.2 1011.8
18 12.06 ЮЗ 1 н/о н/о +7.7 +3.4 74 +7 +7 1012.0 1011.7
21 12.06 Ю 1 н/о н/о +16.3 +7.5 56 +17 +17 1012.1 1011.8 +2.8
00 13.06 ЮВ 3 н/о н/о +15.1 +6.3 56 +15 +15 1011.8 1011.4
03 13.06 ЮВ 2 н/о н/о +18.9 +10.8 59 +20 +20 1011.3 1010.9
06 13.06 ЮВ 3 н/о н/о +14.9 +8.9 67 +14 +14 1010.5 1010.1
09 13.06 В 3 н/о н/о +7.3 +4.9 85 +4 +4 1010.7 1010.3 +19.5
12 13.06 штиль 0 н/о н/о +7.4 +4.6 82 +7 +7 1010.9 1010.5
15 13.06 С 4 н/о н/о +5.6 +4.3 91 +2 +2 1011.0 1010.7
18 13.06 ЮЗ 2 н/о н/о +9.2 +6.2 81 +8 +8 1011.7 1011.4
21 13.06 С 2 н/о н/о +10.1 +6.4 78 +9 +9 1012.7 1012.3 +5.0
00 14.06 В 3 н/о н/о +9.9 +6.6 80 +8 +8 1013.2 1012.8
03 14.06 В 4 н/о н/о +8.8 +5.1 78 +6 +6 1013.9 1013.5
06 14.06 ЮВ 5 н/о н/о +9.7 +3.9 67 +7 +7 1013.9 1013.5
09 14.06 ЮВ 3 н/о н/о +8.0 +3.1 71 +5 +5 1014.4 1014.0 +12.2
12 14.06 Ю 2 н/о н/о +8.0 +5.1 82 +6 +6 1014.5 1014.1
15 14.06 ЮВ 2 н/о н/о +4.5 +2.3 86 +2 +2 1015.1 1014.7
18 14.06 Ю 1 н/о н/о +6.8 +3.3 78 +6 +6 1015.6 1015.2
21 14.06 В 2 н/о н/о +5.7 +2.7 81 +3 +3 1016.7 1016.3 +2.9
00 15.06 В 2 н/о н/о +8.7 +4.0 72 +7 +7 1017.5 1017.1
03 15.06 В 2 н/о н/о +9.3 +5.7 78 +8 +8 1017.8 1017.4
06 15.06 Ю 2 н/о н/о +10.1 +6.5 78 +9 +9 1017.9 1017.5
09 15.06 ЮВ 2 н/о н/о +8.5 +5.6 82 +7 +7 1018.5 1018.1 +13.1
12 15.06 ЮЗ 2 н/о н/о +6.4 +5.1 91 +4 +4 1018.7 1018.3
15 15.06 Ю 2 н/о н/о +4.6 +3.9 95 +2 +2 1018.6 1018.2
18 15.06 ЮВ 3 н/о н/о +7.2 +5.1 86 +4 +4 1018.4 1018.1
21 15.06 ЮВ 4 н/о н/о +8.2 +4.4 77 +5 +5 1018.1 1017.7 +3.3
00 16.06 В 5 н/о н/о +6.5 +2.8 77 +2 +2 1017.8 1017.4
03 16.06 ЮВ 4 н/о н/о +8.0 +4.1 76 +5 +5 1016.9 1016.5
06 16.06 В 4 н/о н/о +6.4 +3.2 80 +3 +3 1016.4 1016.0
09 16.06 ЮВ 3 н/о н/о +7.0 +3.6 79 +4 +4 1016.3 1015.9 +9.1
12 16.06 ЮВ 3 н/о н/о +3.8 +2.0 88 -0 -0 1016.2 1015.8
15 16.06 штиль 0 н/о н/о +4.1 +2.2 87 +3 +3 1015.8 1015.4
18 16.06 СВ 1 н/о н/о +5.4 +1.7 77 +4 +4 1016.2 1015.8
21 16.06 СВ 1 н/о н/о +6.6 +2.7 76 +6 +6 1016.3 1016.0 +2.4
00 17.06 С 4 н/о н/о +8.8 +3.5 69 +6 +6 1016.7 1016.4
03 17.06 С 3 н/о н/о +9.2 +4.8 74 +7 +7 1016.6 1016.2
06 17.06 С 3 н/о н/о +8.7 +4.0 72 +6 +6 1017.1 1016.7

 

Местоположение метеостанции Мыс Шмидта (Чукотка, Россия): широта 68.87 долгота -179.00 высота над уровнем моря 4 м.

В архиве по умолчанию представлена погода на Мысе Шмидта за последнюю неделю. Архивные данные за месяц целиком и за предыдущие месяцы, начиная с января 2011 года, Вы можете получить, выбрав интересующий диапазон дат из раскрывающегося списка и нажав кнопку "Ввод!".


*Определитесь, кто Вы:
робот инопланетянин человек

Внимание! Время в таблицах - всемирное. Для получения местного времени необходимо прибавить поправку, которая равна 12 ч.

Смотрите также архив погоды в соседних городах и на ближайших метеорологических станциях:

Погода на Мысе Ванкарем (Чукотка, Россия) (201 км)
Погода на Острове Врангеля (Чукотка, Россия) (238 км)
Погода в Эгвекиноте (Чукотка, Россия) (280 км)
Погода в Уэлене (Чукотка, Россия) (520 км)

Пояснения к столбцам:

Ветер - указаны скорость ветра в м/с - средняя за 10 мин, порывы в срок и между сроками (в фигурных скобках) и направление, откуда дует ветер: С - северный, СВ - северо-восточный, В - восточный, ЮВ - юго-восточный, Ю - южный, ЮЗ - юго-западный, З - западный, СЗ - северо-западный.
Видимость - горизонтальная дальность видимости в метрах или километрах. При видимости от 1 до 10 км при отсутствии осадков обычно наблюдается дымка, при ухудшении видимости до 1 км и менее - туман. В сухую погоду видимость может ухудшаться дымом, пылью или мглою.
Явления - указаны атмосферные явления, наблюдавшиеся в срок или в последний час перед сроком; фигурными скобками обозначены явления, наблюдавшиеся между сроками (за 1-3 часа до срока); квадратными скобками обозначены град или гололедные отложения с указанием их диаметра в мм.
Облачность - указаны через наклонную черту общая и нижняя облачность в баллах и высота нижней границы облаков в метрах; квадратными скобками обозначены формы облаков: Ci - перистые, Cs - перисто-слоистые, Cc - перисто-кучевые, Ac - высококучевые, As - высокослоистые, Sc - слоисто-кучевые, Ns - слоисто-дождевые, Cu - кучевые, Cb - кучево-дождевые. Подробнее классификацию облаков см. в Атласе облаков (PDF).
T - Температура воздуха - температура, измеренная на высоте 2 м над землей.
Td - Температура точки росы - температура, при понижении до которой содержащийся в воздухе водяной пар достигнет насыщения.
f - Относительная влажность воздуха - влажноcть воздуха, измеренная на высоте 2 м над землей.
Te - Эффективная температура - температура, которую ощущает одетый по сезону человек в тени. Характеристика душности погоды. При расчете учитывается влияние влажности воздуха и скорости ветра на теплоощущения человека.
Tes - Эффективная температура на солнце - температура, которую ощущает человек, с поправкой на солнечный нагрев. Характеристика знойности погоды. Зависит от высоты солнца над горизонтом, облачности и скорости ветра. Ночью, в пасмурную погоду, а также при ветре 12 м/с и более поправка равна нулю.
P - Атмосферное давление - приведенное к уровню моря атмосферное давление.
Po - Атмосферное давление - измеренное на уровне метеостанции атмосферное давление.
Tmin - Минимальная температура - минимум температуры воздуха на высоте 2 м над землей.
Tmax - Максимальная температура - максимум температуры воздуха на высоте 2 м над землей.
R - Количество осадков - Количество выпавших осадков за период времени, мм. При наведении курсора мыши на число - период времени, за который выпало указанное количество осадков.
R24 - Количество осадков - Количество выпавших осадков за 24 часа, мм.
S - Снежный покров - Высота снежного покрова, см. При наведении курсора мыши на число - состояние снежного покрова и степень покрытия местности в баллах.